IVALO current weather conditions

sailwx.info

Wind at 1 knots

Air temperature -15.0° C
Visibility: greater than 5.4 NM
Dewpoint -17.0° C

Last reported at 2019-Dec-09 11:20 UTC.
Time now 2019-Dec-09 12:47 UTC

Location: N 68°37' E 027°25'.
View on Google Maps.

See reports from other nearby stations

  
Tides and Currents Weather Stations Pressure Air Temp Water Temp Dewpoint Dewpoint Depression Visibility Wind Speed Wind Dir Waves Ship Positions
date/time (UTC)wind fromknots sea level pressurealtimeterstation pressurevisibilityair tempwater tempwave heightnotes
2019-Dec-09 11:20 5.4-15.0
2019-Dec-09 10:50 5.4-15.0
2019-Dec-09 10:20 5.4-15.0
2019-Dec-09 09:50 170 0 5.4-15.0
2019-Dec-09 09:20 5.4-16.0
2019-Dec-09 08:50 5.4-16.0
2019-Dec-09 08:20 5.4-17.0
2019-Dec-09 07:50 5.4-17.0
2019-Dec-09 07:20 250 1 5.4-18.0
2019-Dec-09 06:50 5.4-18.0
2019-Dec-09 06:20 5.4-19.0
2019-Dec-09 05:50 250 2 5.4-19.0
2019-Dec-09 05:20 240 2 5.4-19.0
2019-Dec-09 04:50 5.4-19.0
2019-Dec-09 04:20 230 2 5.4-18.0
2019-Dec-09 03:50 5.4-18.0
2019-Dec-09 03:20 5.4-17.0
2019-Dec-09 02:50 5.4-17.0
2019-Dec-09 02:20 5.4-16.0
2019-Dec-09 01:50 5.4-15.0
2019-Dec-09 01:20 5.4-14.0
2019-Dec-09 00:50 5.4-13.0
2019-Dec-09 00:20 5.4-11.0 Precipitation.
2019-Dec-08 23:50 5.4-11.0
2019-Dec-08 23:20 5.4-11.0
2019-Dec-08 22:50 5.4-8.0
2019-Dec-08 22:20 030 2 5.4-8.0
2019-Dec-08 21:50 040 4 5.4-6.0
2019-Dec-08 21:20 010 4 5.4-6.0
2019-Dec-08 20:50 360 2 5.4-5.0
2019-Dec-08 20:20 010 2 5.4-4.0 Light snow.
2019-Dec-08 19:50 020 4 5.4-4.0 Light snow.
2019-Dec-08 19:20 360 2 5.4-4.0 Light snow.
2019-Dec-08 18:50 330 5 5.4-4.0 Light snow.
2019-Dec-08 18:20 330 6 5.4-5.0 Light snow.
2019-Dec-08 17:50 330 4 5.4-5.0 Light snow showers.
2019-Dec-08 17:20 260 5 4.3-5.0 Light snow.
2019-Dec-08 16:50 230 6 4.3-6.0 Light snow.
2019-Dec-08 16:20 240 6 5.4-6.0 Light snow.
2019-Dec-08 15:50 230 6 5.4-6.0 Light snow.
2019-Dec-08 15:20 230 5 5.4-6.0 Light snow.
2019-Dec-08 14:50 230 5 4.9-6.0 Light snow.
2019-Dec-08 14:20 240 6 5.4-6.0 Light snow.
2019-Dec-08 13:50 240 2 5.4-6.0 Light snow.
2019-Dec-08 13:20 240 2 5.4-6.0 Light snow showers.
2019-Dec-08 12:50 250 2 5.4-6.0 Light snow showers.
2019-Dec-08 12:20 280 1 5.4-6.0 Light snow showers.
2019-Dec-08 11:50 5.4-6.0 Light snow.
2019-Dec-08 11:20 340 4 5.4-6.0 Light snow.
2019-Dec-08 10:50 330 6 5.4-6.0
2019-Dec-08 10:20 340 4 5.4-5.0
2019-Dec-08 09:50 350 2 3.8-5.0 Light freezing rain.
2019-Dec-08 09:20 350 2 2.7-5.0 Light snow showers.
2019-Dec-08 08:50 350 2 3.2-5.0 Light freezing rain.
2019-Dec-08 08:20 2.3-5.0 Light freezing rain.
2019-Dec-08 07:50 010 4 2.3-5.0 Light freezing drizzle. Snow.
2019-Dec-08 07:20 030 6 2.7-5.0 Light freezing rain.
2019-Dec-08 06:50 030 6 3.2-4.0 Light freezing rain.
2019-Dec-08 06:20 040 7 3.2-4.0 Light freezing rain.
2019-Dec-08 05:50 040 6 2.7-4.0 Light freezing drizzle. Snow.
2019-Dec-08 05:20 050 5 4.3-4.0 Light freezing drizzle. Snow.
2019-Dec-08 04:50 030 2 5.4-4.0
2019-Dec-08 04:20 010 1 4.3-4.0 Light freezing drizzle. Snow.
2019-Dec-08 03:50 020 1 5.4-4.0 Light freezing drizzle. Snow.
2019-Dec-08 03:20 020 1 5.4-4.0 Freezing rain.
2019-Dec-08 02:50 4.9-4.0 Light snow.
2019-Dec-08 01:50 3.2-4.0
2019-Dec-08 01:20 110 1 5.4-4.0
2019-Dec-08 00:50 030 1 5.4-4.0
2019-Dec-08 00:20 020 2 5.4-4.0
2019-Dec-07 23:50 5.4-4.0
2019-Dec-07 23:20 090 2 5.4-4.0
2019-Dec-07 22:50 5.4-4.0
2019-Dec-07 22:20 5.4-4.0
2019-Dec-07 21:50 5.4-4.0
2019-Dec-07 21:20 5.4-4.0 Light snow showers.
2019-Dec-07 20:50 040 2 5.4-4.0 Light snow showers.
2019-Dec-07 20:20 5.4-4.0 Light snow.
2019-Dec-07 19:50 5.4-4.0 Light snow.
2019-Dec-07 19:20 060 2 5.4-4.0 Light snow.
2019-Dec-07 18:50 5.4-4.0 Light snow showers.
2019-Dec-07 18:20 5.4-5.0 Light snow showers.
2019-Dec-07 17:50 040 4 5.4-5.0 Light snow showers.
2019-Dec-07 17:20 5.4-5.0 Light snow.
2019-Dec-07 16:50 5.4-5.0 Light snow.
2019-Dec-07 16:20 040 4 5.4-5.0 Freezing drizzle. Snow.
2019-Dec-07 15:50 040 4 5.4-5.0 Light snow.
2019-Dec-07 15:20 040 2 4.3-5.0 Precipitation.
2019-Dec-07 14:50 040 2 5.4-5.0
2019-Dec-07 14:20 030 4 5.4-5.0
2019-Dec-07 13:50 5.4-5.0 Light freezing drizzle. Snow.
2019-Dec-07 13:20 050 2 4.3-5.0 Light freezing drizzle. Snow.
2019-Dec-07 12:50 040 4 4.3-5.0 Light freezing drizzle. Snow.
2019-Dec-07 12:20 030 5 3.2-5.0 Light freezing drizzle. Snow.